Palmdale, CA

1:49 AM PDT on June 21, 2018 (GMT -0700)
Palmdale Af Plant 42

Weather History for KPMD - October, 2017

Change the Weather History Date:

Saturday, October 7, 2017

  Actual Average Record
Temperature  
Mean Temperature 69 °F 66 °F  
Max Temperature 92 °F 82 °F 97 °F (1991)
Min Temperature 46 °F 51 °F 36 °F (1954)
Degree Days  
Heating Degree Days 0 2  
Month to date heating degree days 11 11  
Since 1 July heating degree days 30 23  
Cooling Degree Days 4 3  
Month to date cooling degree days 10 27  
Year to date cooling degree days 2210 1784  
Growing Degree Days 18 (Base 50)    
Moisture  
Dew Point 20 °F    
Average Humidity 22    
Maximum Humidity 38    
Minimum Humidity 6    
Precipitation  
Precipitation 0.00 in 0.02 in 0.64 in (1974)
Month to date precipitation 0.00 0.08  
Year to date precipitation 4.56 5.93  
Snow  
Snow 0.00 in - 0.00 in (1973)
Month to date snowfall 0.0  
Since 1 July snowfall 0.0  
Since 1 September snowfall 0.0  
Snow Depth 0.00 in    
Sea Level Pressure  
Sea Level Pressure 29.87 in    
Wind  
Wind Speed 5 mph (WSW)    
Max Wind Speed 20 mph    
Max Gust Speed 28 mph    
Visibility 10 miles    
Events      
T = Trace of Precipitation, MM = Missing Value Source: NWS Daily Summary

Daily Weather History Graph

Daily Weather History Graph

Search for Another Location

Airport or City:

Astronomy

Oct. 07, 2017 Rise Set
Actual Time 6:51 AM PDT 6:27 PM PDT
Civil Twilight 6:26 AM PDT 6:52 PM PDT
Nautical Twilight 5:57 AM PDT 7:21 PM PDT
Astronomical Twilight 5:28 AM PDT 7:51 PM PDT
Moon 8:13 PM PDT (10/7) 8:47 AM PDT (10/7)
Length of Visible Light 12h 26m
Length of Day
11h 35m
Waning Gibbous, 95% of the Moon is Illuminated
Oct 7
Waning Gibbous
Oct 12
Last Quarter
Oct 19
New
Oct 27
First Quarter
Nov 3
Full

Hourly Weather History & Observations

Time (PDT) Temp. Windchill Dew Point Humidity Pressure Visibility Wind Dir Wind Speed Gust Speed Precip Events Conditions
12:53 AM 57.0 °F - 17.1 °F 21% 29.98 in 10.0 mi Calm Calm - N/A   Clear
1:53 AM 52.0 °F - 23.0 °F 32% 29.98 in 10.0 mi SSW 6.9 mph - N/A   Clear
2:53 AM 51.1 °F - 19.0 °F 28% 29.96 in 10.0 mi SSW 8.1 mph - N/A   Clear
3:53 AM 50.0 °F - 19.0 °F 29% 29.95 in 10.0 mi West 3.5 mph - N/A   Clear
4:53 AM 48.0 °F - 18.0 °F 30% 29.95 in 10.0 mi Calm Calm - N/A   Clear
5:53 AM 48.9 °F - 17.1 °F 28% 29.96 in 10.0 mi Calm Calm - N/A   Clear
6:53 AM 46.0 °F 42.5 °F 23.0 °F 40% 29.96 in 10.0 mi South 6.9 mph - N/A   Clear
7:53 AM 53.1 °F - 19.9 °F 27% 29.96 in 10.0 mi South 4.6 mph - N/A   Clear
8:53 AM 62.1 °F - 19.0 °F 19% 29.96 in 10.0 mi Calm Calm - N/A   Clear
9:53 AM 69.1 °F - 18.0 °F 14% 29.96 in 10.0 mi NNW 4.6 mph - N/A   Clear
11:53 AM 80.1 °F - 18.0 °F 10% 29.92 in 10.0 mi Calm Calm - N/A   Clear
12:53 PM 84.0 °F - 17.1 °F 8% 29.88 in 10.0 mi Calm Calm - N/A   Clear
1:53 PM 84.9 °F - 17.1 °F 8% 29.85 in 10.0 mi Variable 4.6 mph - N/A   Clear
2:53 PM 88.0 °F - 16.0 °F 7% 29.83 in 10.0 mi Variable 3.5 mph - N/A   Clear
3:53 PM 88.0 °F - 15.1 °F 7% 29.80 in 10.0 mi Calm Calm - N/A   Clear
4:53 PM 91.0 °F - 15.1 °F 6% 29.78 in 10.0 mi Calm Calm - N/A   Clear
5:53 PM 87.1 °F - 14.0 °F 7% 29.77 in 10.0 mi NW 13.8 mph 23.0 mph N/A   Clear
6:53 PM 80.1 °F - 27.0 °F 14% 29.79 in 10.0 mi West 11.5 mph - N/A   Clear
7:53 PM 75.0 °F - 26.1 °F 16% 29.79 in 10.0 mi WSW 6.9 mph - N/A   Clear
8:53 PM 73.9 °F - 25.0 °F 16% 29.78 in 10.0 mi Calm Calm - N/A   Clear
9:53 PM 66.0 °F - 24.1 °F 20% 29.77 in 10.0 mi WSW 6.9 mph - N/A   Clear
10:53 PM 69.1 °F - 23.0 °F 18% 29.76 in 10.0 mi WSW 12.7 mph - N/A   Clear
11:53 PM 70.0 °F - 21.9 °F 16% 29.75 in 10.0 mi Calm Calm - N/A   Clear